Flag for United Kingdom Weather past 2 weeks in Inverness, Scotland, United Kingdom

Now
52 °F

Scattered showers. Scattered clouds.


Feels Like: 48 °F
Forecast: 46 / 56 °F
Wind: 12 mph from Southwest

Location: Inverness / Dalcross

Current Time: Aug 20, 2014 at 10:46:57 AM

Latest Report: Aug 20, 2014 at 10:20 AM


Visibility: N/A

Pressure: 29.98 "Hg

Humidity: 82%

Dew point: 46 °F

Location of InvernessLocation

Historic Weather in Inverness — Graph

°F

Inverness temperature yesterday

Maximum temperature yesterday: 57 °F (at 4:20 PM)
Minimum temperature yesterday: 46 °F (at 5:50 AM)
Average temperature yesterday: 51 °F

Past Weeks' High & Low Weather Summary

 TemperatureHumidityPressure
High70 °F (Aug 5, 2:20 PM)100% (Aug 6, 2:20 AM)30.07 "Hg (Aug 6, 2:20 AM)
Low43 °F (Aug 10, 5:50 AM)49% (Aug 8, 3:20 PM)29.06 "Hg (Aug 11, 4:50 AM)
Average56 °F85%29.66 "Hg
* Reported Aug 5 9:20 AM — Aug 20 9:50 AM, Inverness, Weather by CustomWeather, © 2014

Note: Actual official high and low records may vary slightly from our data, if they occured in-between our weather recording intervals... More about our weather records

Advertising

Inverness weather history for previous 24 hours

 ConditionsComfort  
Time TempWeatherWind HumidityBarometerVisibility
9:50 AM
Aug 20
50 °FScattered showers. Broken clouds.13 mph88%29.98 "HgN/A
9:20 AM52 °FScattered showers. Scattered clouds.9 mph82%30.01 "HgN/A
8:50 AM50 °FScattered showers. Scattered clouds.10 mph82%30.01 "HgN/A
8:20 AM50 °FScattered showers. Partly sunny.12 mph88%29.98 "HgN/A
7:50 AM50 °FPartly sunny.10 mph82%29.98 "HgN/A
7:20 AM50 °FPartly sunny.9 mph82%29.98 "HgN/A
6:50 AM50 °FPartly sunny.10 mph88%29.98 "HgN/A
6:20 AM48 °FPassing clouds.8 mph87%29.98 "HgN/A
5:50 AM48 °FPassing clouds.7 mph87%29.98 "HgN/A
5:20 AM48 °FPartly cloudy.5 mph94%29.98 "HgN/A
4:50 AM48 °FPassing clouds.3 mph94%29.98 "HgN/A
4:20 AM48 °FPartly cloudy.5 mph94%30.01 "HgN/A
3:50 AM48 °FScattered showers. Partly cloudy.5 mph94%30.01 "HgN/A
3:20 AM48 °FPartly cloudy.6 mph94%30.01 "HgN/A
2:50 AM48 °FPartly cloudy.7 mph94%30.01 "HgN/A
2:20 AM50 °FPartly cloudy.7 mph88%30.01 "Hg6 mi
1:50 AM50 °FPartly cloudy.9 mph88%30.01 "HgN/A
1:20 AM50 °FPassing clouds.7 mph88%30.01 "HgN/A
12:50 AM50 °FPartly cloudy.8 mph88%30.01 "HgN/A
12:20 AM50 °FPassing clouds.7 mph82%30.01 "HgN/A
11:50 PM
Aug 19
50 °FCool.7 mph82%30.01 "HgN/A
11:20 PM50 °FPassing clouds.8 mph82%30.01 "HgN/A
10:50 PM50 °FPartly cloudy.5 mph88%30.01 "HgN/A
10:20 PM50 °FCool.9 mph88%30.01 "HgN/A
9:50 PM52 °FPassing clouds.9 mph82%29.98 "HgN/A
9:20 PM50 °FBroken clouds.9 mph88%29.98 "HgN/A
8:50 PM50 °FSprinkles. Broken clouds.7 mph88%29.98 "HgN/A
8:20 PM52 °FScattered clouds.9 mph82%29.98 "HgN/A
7:50 PM54 °FSprinkles. Scattered clouds.12 mph77%29.95 "HgN/A
7:20 PM54 °FSprinkles. Scattered clouds.13 mph77%29.95 "HgN/A
6:50 PM55 °FScattered clouds.14 mph72%29.95 "HgN/A
6:20 PM54 °FScattered clouds.12 mph72%29.95 "HgN/A
5:50 PM54 °FScattered clouds.13 mph72%29.95 "HgN/A
5:20 PM55 °FScattered clouds.10 mph72%29.92 "HgN/A
4:50 PM55 °FScattered clouds.14 mph72%29.92 "HgN/A
4:20 PM57 °FScattered showers. Scattered clouds.9 mph72%29.92 "HgN/A
3:50 PM55 °FScattered showers. Scattered clouds.5 mph82%29.92 "HgN/A
3:20 PM52 °FSprinkles. Broken clouds.9 mph88%29.92 "HgN/A
2:50 PM54 °FRain showers. Broken clouds.13 mph77%29.92 "HgN/A
2:20 PM54 °FScattered showers. Broken clouds.10 mph82%29.92 "HgN/A
1:50 PM54 °FSprinkles. Partly sunny.18 mph82%29.92 "HgN/A
1:20 PM54 °FScattered showers. Scattered clouds.12 mph82%29.89 "HgN/A
12:50 PM52 °FScattered showers. Scattered clouds.13 mph88%29.89 "HgN/A
12:20 PM54 °FSprinkles. Partly sunny.17 mph77%29.89 "HgN/A
11:50 AM55 °FScattered clouds.9 mph72%29.89 "HgN/A
11:20 AM54 °FScattered clouds.13 mph77%29.89 "HgN/A
10:50 AM54 °FBroken clouds.14 mph72%29.89 "HgN/A
10:20 AM54 °FScattered clouds.15 mph77%29.86 "HgN/A
Weather by CustomWeather, © 2014

See weather overviewHow to use our weather pages